Regional Weather Roundup
Issued by NWS

Home | Current Version | Previous Version | Text Only | Print | Product List | Glossary On
Versions: 1 2 3 4 5 6 7 8 9 10 11 12 13 14 15 16 17 18 19 20 21 22 23 24 25 26 27 28 29 30 31 32 33 34 35 36 37 38 39 40 41 42 43 44 45 46 47 48 49 50
000
ASUS43 KMPX 272210
RWRMN
WEATHER ROUNDUP FOR MINNESOTA
NATIONAL WEATHER SERVICE TWIN CITIES/CHANHASSEN MN
400 PM CST TUE JAN 27 2015


NOTE: "FAIR" INDICATES FEW OR NO CLOUDS BELOW 12,000 FEET WITH NO
SIGNIFICANT WEATHER AND/OR OBSTRUCTIONS TO VISIBILITY. N/A MEANS
CURRENT SKY AND/OR WEATHER CONDITIONS ARE NOT AVAILABLE.

MNZ060>063-068>070-272300-
   Twin Cities Metro

CITY           SKY/WX    TMP DP  RH WIND       PRES   REMARKS
TWIN CITIES    CLOUDY    33  25  72 SE7       30.15F WCI  27
ST PAUL        CLOUDY    32  26  78 S8        30.17F WCI  25
CRYSTAL        CLOUDY    34  25  69 SE7       30.14S WCI  28
BLAINE         CLOUDY    34  27  75 SE8       30.14F WCI  27
LAKEVILLE      CLOUDY    30  27  86 S7        30.14F WCI  23
EDEN PRAIRIE   CLOUDY    34  26  72 SE8       30.13F WCI  27
SOUTH ST PAUL  CLOUDY    33  26  75 SE5       30.15F WCI  28
LAKE ELMO      CLOUDY    32  28  86 S5        30.16F WCI  27
$$
MNZ001>005-007-008-013>017-022>024-027-028-272300-
   Northwest Minnesota

CITY           SKY/WX    TMP DP  RH WIND       PRES   REMARKS
BEMIDJI        CLOUDY    33  27  80 S8        30.00F WCI  26
HALLOCK        CLOUDY    30  30 100 S12       29.96S WCI  21
ROSEAU         CLOUDY    30  27  86 SE5       29.99S WCI  25
WARROAD        CLOUDY    30  27  86 SE6       30.01S WCI  24
THIEF RVR FALL MOCLDY    34  30  86 S8        29.98S WCI  27
CROOKSTON      CLOUDY    34  30  86 S13G20    29.98F WCI  25
FOSSTON        PTCLDY    36  28  75 SE9       29.98S
DETROIT LAKES  MOSUNNY   32  30  93 S15       30.00S WCI  22
MOORHEAD       CLOUDY    34  34 100 S16       30.00S WCI  23
PARK RAPIDS    PTCLDY    35  27  72 SE14      30.02S WCI  26
MAHNOMEN       FAIR      34  28  80 SE9       29.98F WCI  27
$$
MNZ006-009>011-018-025>026-272300-
   North Central Minnesota

CITY           SKY/WX    TMP DP  RH WIND       PRES   REMARKS
BAUDETTE       CLOUDY    32  25  75 SE7       30.01S WCI  26
FLAG ISLAND    CLOUDY    28  27  93 S10       30.01R WCI  19
INTL FALLS     CLOUDY    31  24  75 SE6       30.06R WCI  25
WASKISH        CLOUDY    34  27  75 SE9       30.02F WCI  26
BIG FORK       CLOUDY    32  25  74 S7        30.06S WCI  26
LONGVILLE      CLOUDY    32  27  80 SE8       30.05S WCI  25
GRAND RAPIDS   MOCLDY    30  25  80 S10       30.06S WCI  21
CRANE LAKE     CLOUDY    25  23  93 S6        30.11R WCI  18
ORR            CLOUDY    27  21  80 CALM      30.05S
COOK           CLOUDY    27  25  93 SE6       30.09R WCI  20
WALKER         CLOUDY    32  26  78 SE7       30.03S WCI  26
$$
MNZ012-019>021-037-272300-
   Northeast Minnesota

CITY           SKY/WX    TMP DP  RH WIND       PRES   REMARKS
DULUTH         CLOUDY    28  22  78 S9        30.10S WCI  19
ELY            CLOUDY    27  23  86 S3        30.09S
HIBBING        CLOUDY    30  23  75 SE8       30.08F WCI  22
EVELETH        CLOUDY    28  23  80 S8        30.10S WCI  20
DULUTH HARBOR  CLOUDY    30  25  80 S8        30.17S WCI  23
TWO HARBORS    CLOUDY    30  25  80 SW6       30.12S WCI  24
SILVER BAY     CLOUDY    30  25  80 S7        30.12R WCI  23
GRAND MARAIS     N/A     30  23  75 SW6       30.16R WCI  24
G MARAIS ARPRT CLOUDY    25  18  74 S3        30.10R
$$
MNZ029>031-032-039>041-046>048-054>057-064-272300-
   West Central Minnesota

CITY           SKY/WX    TMP DP  RH WIND       PRES   REMARKS
FERGUS FALLS   CLOUDY    30  30 100 SE15G22   30.04F WCI  19
WHEATON        CLOUDY    28  28 100 SE18      30.03F WCI  16
MORRIS         CLOUDY    30  30 100 SE20      30.02F WCI  18
ALEXANDRIA     CLOUDY    31  28  89 SE16      30.05F WCI  20
ELBOW LAKE     CLOUDY    31  30  96 SE20      30.02F WCI  18
WADENA         CLOUDY    30  27  86 S14       30.04S WCI  20
GLENWOOD       CLOUDY    30  28  93 SE15      30.06F WCI  19
APPLETON       CLOUDY    34  30  86 SE17G24   30.05F WCI  23
BENSON         CLOUDY    32  28  86 S12G21    30.06F WCI  23
ORTONVILLE     CLOUDY    30  30 100 SE15      30.02F WCI  19
MADISON        CLOUDY    36  36 100 SE16      30.04F
WILLMAR        CLOUDY    34  30  86 SE14      30.09F WCI  24
$$
MNZ033>034-036-042>043-049>051-058-059-272300-
   Central Minnesota

CITY           SKY/WX    TMP DP  RH WIND       PRES   REMARKS
ST CLOUD       CLOUDY    34  27  75 SE13      30.09F WCI  25
SAUK CENTRE    CLOUDY    32  29  89 SE12      30.07F WCI  23
PAYNESVILLE    CLOUDY    31  28  88 E10       30.09S WCI  22
AITKIN         CLOUDY    34  27  75 SE7       30.07F WCI  28
PINE RIVER     CLOUDY    32  27  80 S10       30.09S WCI  24
BRAINERD       CLOUDY    32  26  78 S10       30.08S WCI  24
STAPLES        CLOUDY    30  27  86 S9        30.05F WCI  22
LONG PRAIRIE   CLOUDY    32  28  86 SE14      30.06F WCI  22
LITTLE FALLS   CLOUDY    32  27  80 S9        30.09S WCI  24
LITCHFIELD     CLOUDY    36  30  80 SE7       30.10F
BUFFALO        CLOUDY    34  27  76 SE8       30.12F WCI  27
MAPLE LAKE     CLOUDY    35  30  81 SE10      30.11F WCI  27
$$
MNZ037-044-045-052-053-272300-
   East Central Minnesota

CITY           SKY/WX    TMP DP  RH WIND       PRES   REMARKS
PRINCETON      CLOUDY    34  27  75 E9        30.12F WCI  26
MORA           CLOUDY    32  25  74 S6        30.14F WCI  26
CAMBRIDGE      CLOUDY    34  25  69 S9        30.11F WCI  26
RUSH CITY      CLOUDY    31  24  74 SE6       30.14F WCI  25
MOOSE LAKE     CLOUDY    32  23  69 SE6       30.11S WCI  26
HINCKLEY       CLOUDY    32  27  80 S8        30.13S WCI  25
CLOQUET        CLOUDY    28  21  74 SE6       30.11F WCI  22
MCGREGOR       CLOUDY    32  27  80 S9        30.09S WCI  24
$$
MNZ071>073-080-081-089-090-097-098-272300-
   Southwest Minnesota

CITY           SKY/WX    TMP DP  RH WIND       PRES   REMARKS
MONTEVIDEO     CLOUDY    34  32  93 S14       30.07F WCI  24
GRANITE FALLS  CLOUDY    34  31  88 E14G20    30.08F WCI  24
CANBY          CLOUDY    37  33  87 SE16      30.04F
MARSHALL       MOSUNNY   37  32  81 SE12      30.06F
REDWOOD FALLS  CLOUDY    35  30  82 SE14      30.10S WCI  26
OLIVIA         CLOUDY    32  30  93 SE12      30.09F WCI  23
PIPESTONE      MOSUNNY   36  36 100 SE10G18   30.00F
WINDOM         CLOUDY    37  34  87 SE9       30.08S
WORTHINGTON    PTSUNNY   39  34  81 SE10      30.06S
JACKSON        PTSUNNY   37  32  81 SE12      30.09S
TRACY          PTSUNNY   40  36  83 SE13      30.05F
SLAYTON        MOSUNNY   38  35  86 SE14      30.04F
$$
MNZ065>067-074>077-082>085-091>093-272300-
   South Central Minnesota

CITY           SKY/WX    TMP DP  RH WIND       PRES   REMARKS
MANKATO        CLOUDY    36  27  69 SE12      30.13S
NEW ULM        CLOUDY    36  30  80 SE12      30.11F
ST JAMES       CLOUDY    37  32  81 SE8       30.13S
FAIRMONT       CLOUDY    36  28  75 SE12      30.11F
GLENCOE        CLOUDY    36  32  84 SE8       30.11F
FARIBAULT      CLOUDY    34  27  75 SE8       30.14F WCI  27
OWATONNA       CLOUDY    34  27  75 S9        30.15S WCI  26
WASECA         CLOUDY    34  30  86 SE9       30.16R WCI  26
ALBERT LEA     CLOUDY    34  28  80 SE8       30.14S WCI  27
$$
MNZ078>079-086>088-094>096-272300-
   Southeast Minnesota

CITY           SKY/WX    TMP DP  RH WIND       PRES   REMARKS
ROCHESTER      CLOUDY    29  24  82 E6        30.16S WCI  23
RED WING       CLOUDY    30  25  80 SE7       30.17F WCI  23
STANTON        CLOUDY    33  26  76 SE7       30.13F WCI  27
DODGE CENTER   CLOUDY    30  27  86 SE7       30.15S WCI  23
WINONA         CLOUDY    32  23  69 SE5       30.22R WCI  27
AUSTIN         CLOUDY    32  28  86 SE6       30.15F WCI  26
PRESTON        CLOUDY    28  23  81 SE5       30.17S WCI  23
$$
ABBREVIATIONS USED IN REMARKS
   TC - TEMPERATURES IN CELSIUS
  WCI - WIND CHILL INDEX
   HX - HEAT INDEX
  VSB - VISIBILITY
$$


USA.gov is the U.S. government's official web portal to all federal, state and local government web resources and services.